Wind_Speed
43 44 45 46 47 48 49 50 51 51 52 53 53 54 54 54 55 55 55 55 55 56 56 56 56 57 57 57 57 57 57 57 56 56 56 56 57 57 58 58 58 58 58 58 58 57 57 57 57 56 56 55
46 47 47 48 49 50 51 51 52 53 53 54 54 55 55 55 55 55 55 55 55 56 56 57 57 57 57 58 58 58 59 59 59 58 58 58 59 59 60 61 61 60 60 60 60 60 60 60 59 59 59 59
49 49 50 50 51 52 53 54 54 55 56 56 57 57 57 57 57 57 57 57 57 57 57 57 58 58 58 58 58 59 59 60 60 60 61 61 61 61 62 63 63 63 63 63 63 63 63 62 62 62 62 62
51 51 52 53 53 54 55 55 56 57 58 58 59 59 59 60 60 60 60 60 60 60 59 59 60 60 60 60 59 59 60 60 61 61 62 62 63 63 64 64 65 66 66 65 65 65 65 65 65 65 65 64
53 53 54 54 55 56 56 57 58 58 59 60 60 61 61 62 62 62 63 63 63 63 63 63 63 63 63 63 62 62 62 62 62 62 63 63 64 64 65 66 67 67 68 68 68 67 67 68 68 67 67 67
56 56 56 57 58 58 59 59 60 60 61 61 62 63 63 63 64 64 65 65 65 66 66 66 66 66 66 66 66 65 65 64 64 64 64 64 64 65 66 67 67 68 69 70 70 70 70 70 70 70 70 70
59 59 60 60 61 61 62 62 63 63 63 64 64 65 65 66 66 66 67 67 67 68 68 69 69 69 69 69 69 69 68 68 68 67 67 67 66 66 67 67 68 69 70 71 72 72 72 72 72 72 72 72
62 63 63 64 64 64 65 65 66 66 67 67 67 68 68 68 69 69 69 69 69 70 70 71 71 72 72 72 72 72 71 71 71 71 70 70 70 69 69 69 69 70 71 72 72 73 74 74 74 74 74 74
64 65 66 66 67 67 67 68 68 69 69 70 70 70 71 71 72 72 72 72 72 73 73 73 73 74 74 74 75 75 75 74 74 74 73 73 73 73 73 72 72 72 72 73 73 74 75 75 76 76 76 77
66 66 67 68 68 69 69 70 70 71 71 72 72 72 73 73 74 74 75 75 76 76 76 76 76 76 77 77 77 77 77 77 77 77 77 77 76 76 76 76 75 75 75 75 75 76 76 77 77 78 78 78
66 66 67 68 68 69 70 70 71 72 72 73 74 74 75 75 75 76 76 77 77 78 78 79 79 79 80 80 80 80 80 80 80 80 80 80 80 79 79 79 79 78 78 78 78 78 78 78 79 79 79 80
66 66 67 68 68 69 69 70 71 71 72 73 74 74 75 76 77 77 78 78 79 79 80 80 81 81 82 82 82 83 83 83 83 83 83 83 83 82 82 82 82 82 81 82 81 81 81 81 81 81 81 81
67 67 68 69 69 70 70 71 71 72 72 73 74 74 75 76 77 78 79 79 80 81 81 82 82 83 83 84 84 85 85 85 85 85 85 85 85 85 85 85 85 85 84 84 84 84 84 84 84 84 84 84
68 69 69 70 71 71 72 73 73 74 74 75 75 76 76 77 77 78 79 80 80 81 82 83 83 84 85 85 86 86 87 87 87 87 87 87 87 87 87 88 88 88 87 87 87 87 87 87 87 87 87 87
69 69 70 71 72 72 73 74 74 75 76 76 77 78 78 79 79 80 80 81 81 82 83 84 84 85 86 86 87 87 88 88 89 89 89 90 89 90 89 90 90 90 90 90 90 90 90 89 89 90 90 90
66 67 67 68 68 69 70 71 72 73 74 74 75 76 78 79 80 80 81 82 83 83 84 85 86 86 87 88 88 89 89 89 90 90 91 91 91 91 92 91 91 92 92 92 92 93 93 93 92 92 92 92
61 61 61 62 63 63 64 65 65 66 67 68 69 71 72 73 75 76 78 79 81 82 84 85 86 87 88 89 90 90 91 91 92 92 92 92 93 93 93 93 93 93 93 93 93 94 95 95 95 95 95 94
54 54 55 55 56 57 57 58 59 59 60 61 62 63 64 66 68 69 71 73 74 76 78 80 83 85 87 89 90 92 93 93 94 94 94 94 94 94 95 95 95 95 95 95 95 95 95 96 97 97 97 97
49 49 49 50 50 51 51 52 53 53 54 55 56 57 58 59 61 62 64 65 67 69 71 73 75 77 80 83 86 89 91 93 95 96 96 97 96 96 96 96 97 97 97 97 97 96 96 96 97 97 98 99
45 46 46 46 47 47 48 48 48 49 49 50 51 52 53 54 55 57 58 60 61 63 64 66 68 69 71 74 76 80 84 88 91 95 97 98 99 99 99 99 98 98 99 99 98 98 98 98 98 98 98 99
45 45 46 46 47 47 47 47 48 48 48 49 49 50 51 51 52 53 54 56 57 59 60 62 63 65 66 68 70 72 74 78 82 87 91 95 98 101 102 102 101 101 101 100 100 100 100 100 100 99 99 99
47 47 48 48 49 49 50 50 50 50 51 51 52 52 52 52 53 53 54 55 56 57 58 60 61 63 65 66 67 68 70 71 74 77 81 85 90 96 100 102 104 104 104 103 102 101 101 101 101 101 101 101
49 50 50 51 51 52 52 53 53 53 54 54 55 55 55 56 56 56 56 56 57 58 59 60 62 63 65 66 68 69 70 71 71 73 75 78 81 86 92 97 101 104 105 106 105 104 103 102 102 102 103 103
52 53 53 54 54 54 55 55 56 56 56 57 57 58 58 59 59 59 59 59 60 60 61 62 64 65 66 67 69 70 71 72 73 73 74 75 77 80 84 89 95 100 103 105 106 106 105 104 104 103 104 104
54 55 56 56 57 57 58 58 59 59 59 60 60 61 61 62 62 62 62 62 62 63 64 65 66 67 68 70 71 72 73 74 75 76 76 77 78 79 81 84 89 94 98 102 104 105 105 105 106 105 105 104
56 57 58 58 59 59 60 60 61 62 62 63 63 63 64 64 65 65 65 65 65 65 66 67 69 70 71 72 73 74 75 76 77 78 79 80 80 81 82 83 85 89 93 97 100 103 103 103 104 106 106 106
57 58 59 60 60 61 61 62 62 63 64 64 65 66 66 66 67 67 67 67 67 68 69 70 71 72 73 75 76 77 77 78 80 80 82 83 83 84 84 84 85 87 89 92 96 99 101 102 102 102 104 105
58 59 60 61 61 62 62 63 63 64 65 65 66 67 67 68 68 69 69 70 70 71 72 73 74 75 76 77 78 79 80 81 82 83 84 86 87 87 86 86 85 86 87 89 92 94 97 100 101 100 100 100
59 59 61 61 62 63 63 64 64 64 65 66 67 68 69 69 69 70 71 72 72 73 74 75 76 77 78 79 80 81 82 83 84 85 87 88 89 89 88 87 86 86 86 87 89 91 93 95 97 99 100 99
59 60 61 62 63 63 64 64 65 66 66 67 68 69 70 70 70 71 72 73 73 74 75 77 77 79 80 81 82 83 84 85 86 87 89 90 90 90 89 87 86 85 85 85 86 88 89 92 93 95 97 98
60 61 62 62 63 64 64 65 66 66 67 68 69 70 70 71 71 72 73 73 74 75 77 78 79 80 81 82 83 85 86 87 89 90 91 91 91 90 88 87 85 84 83 83 84 85 86 88 90 91 92 95
Wind_Direction
264 264 264 264 264 264 264 264 264 264 265 265 265 265 265 265 265 265 265 265 265 265 264 264 263 262 262 261 261 260 260 259 258 257 257 256 255 255 255 254 254 253 253 253 252 252 251 251 250 250 249 248
270 269 268 267 267 267 267 266 266 266 266 266 266 266 265 265 265 265 265 264 264 264 264 264 263 262 262 261 261 260 259 259 258 257 257 256 255 254 254 254 253 253 252 252 252 252 251 251 250 250 249 249
275 274 273 272 272 271 271 271 271 270 270 270 269 269 269 268 267 267 266 266 265 265 265 264 264 264 263 262 261 261 260 259 258 257 256 256 255 254 254 253 253 253 252 252 252 251 251 250 250 249 249 249
275 275 275 274 274 274 274 274 274 274 273 273 273 273 272 272 271 270 269 269 268 267 266 266 265 265 264 264 263 262 261 261 260 258 257 256 256 255 254 253 253 253 252 252 251 251 251 251 250 250 249 249
273 273 273 273 273 273 273 273 274 274 274 274 274 274 274 274 273 273 272 272 271 270 269 268 267 266 266 265 265 264 263 262 262 261 260 258 257 256 255 254 253 253 253 252 252 251 251 251 251 251 250 250
273 273 272 272 272 272 272 272 272 272 272 272 273 273 273 273 273 273 273 273 273 272 271 271 270 268 267 267 266 265 265 264 263 262 262 261 259 258 257 256 255 254 254 253 253 252 251 251 251 251 251 251
275 275 274 273 273 273 272 272 272 271 271 271 271 271 271 271 271 271 271 271 271 271 271 271 271 270 269 268 267 267 266 265 264 264 263 262 261 260 259 258 257 256 255 255 254 253 253 252 251 251 252 252
277 277 276 276 275 275 274 274 273 273 272 272 271 271 271 271 270 270 270 270 270 270 270 270 270 270 270 270 269 268 267 266 265 264 264 263 262 261 260 260 259 258 257 256 256 255 254 253 253 252 252 252
278 277 277 277 277 276 276 275 275 274 274 273 273 273 272 272 271 271 270 270 269 269 269 269 269 269 269 269 269 269 268 267 266 265 264 263 263 262 261 260 260 259 258 258 257 256 256 255 254 253 252 252
279 278 278 278 277 277 277 277 276 276 275 274 274 273 273 273 272 272 272 271 271 270 269 269 268 268 268 268 268 267 267 267 267 266 266 265 264 263 262 261 260 260 259 258 258 257 257 256 256 255 254 253
279 279 279 278 278 278 277 277 277 276 276 275 275 274 274 273 272 272 272 271 271 271 271 270 269 269 268 268 267 267 266 266 266 266 266 265 265 264 263 262 261 261 260 259 258 258 258 257 257 256 256 255
280 279 279 279 278 278 278 277 277 277 276 276 275 275 274 274 273 273 272 272 271 271 270 270 270 269 269 268 268 267 266 266 266 265 265 265 265 264 264 263 262 261 261 260 259 259 258 258 257 257 256 256
280 279 279 279 278 278 278 277 277 277 276 276 275 275 275 274 274 273 273 272 272 271 271 270 270 269 269 268 268 267 267 266 266 265 265 264 264 264 263 263 263 262 261 261 260 259 259 258 258 257 257 256
280 280 279 279 278 278 277 277 277 276 276 275 275 275 274 274 273 273 272 272 272 271 271 271 270 270 269 269 268 268 267 267 266 265 265 264 263 263 263 262 262 262 261 261 260 260 259 259 258 258 257 257
281 280 280 279 279 278 278 277 277 276 276 276 275 275 274 274 273 273 272 272 271 271 271 270 270 270 269 269 268 268 267 267 266 266 265 264 263 263 262 262 261 261 261 260 260 260 259 259 258 258 257 257
283 283 282 282 281 280 280 279 279 278 277 277 276 276 275 275 274 274 273 272 271 271 270 270 269 269 269 268 268 268 267 267 266 265 265 265 264 263 262 262 261 261 260 260 260 259 259 258 258 258 257 257
287 287 286 286 285 284 284 283 283 282 281 280 280 279 278 277 277 276 275 275 274 273 272 271 270 269 268 268 267 267 267 266 266 265 265 264 264 263 262 262 261 261 260 259 259 259 259 258 258 258 257 257
292 291 291 290 290 289 289 288 288 287 287 286 285 284 283 282 281 280 279 278 277 277 275 274 273 272 270 269 268 268 267 266 265 265 264 264 263 263 262 262 261 260 260 259 259 259 258 258 258 258 257 257
297 296 296 296 295 295 295 294 294 294 293 293 292 291 290 289 288 286 285 284 283 282 281 279 278 276 275 273 272 270 269 268 267 266 265 264 263 262 262 261 261 260 259 259 258 258 258 258 257 257 257 257
302 302 302 301 301 301 300 300 299 299 298 297 297 296 295 294 293 292 291 290 289 288 287 286 284 283 281 279 277 275 273 271 270 268 267 265 264 263 262 261 261 260 259 259 258 257 257 257 257 257 257 256
304 304 304 304 303 303 302 302 301 300 300 299 298 298 297 297 296 295 295 294 293 292 291 290 289 288 287 285 284 282 280 278 275 273 270 269 267 265 263 262 261 260 259 259 258 257 257 256 256 256 256 256
303 303 303 303 302 302 302 301 301 300 300 299 299 299 298 298 297 297 296 296 295 294 293 292 291 290 289 288 287 286 286 284 282 280 277 274 271 269 266 264 262 261 260 259 258 257 257 256 256 255 255 255
304 303 303 302 302 301 301 300 300 299 299 299 299 298 298 298 298 298 298 297 297 297 296 295 294 293 292 291 289 289 288 287 287 286 284 282 278 275 271 268 265 263 261 259 258 257 257 257 256 256 255 254
304 304 303 302 301 301 300 299 299 299 299 299 298 298 298 298 298 298 298 298 298 299 299 298 298 297 295 294 293 292 291 290 289 289 288 287 285 282 278 274 270 266 263 261 259 258 257 256 256 256 256 255
303 303 302 302 301 301 300 300 300 299 299 299 299 299 298 298 298 298 298 298 299 299 299 299 299 299 298 297 296 295 293 292 291 291 290 290 289 287 283 279 275 271 267 263 261 259 257 257 256 255 255 255
302 301 301 301 301 301 301 300 300 300 300 299 299 299 299 299 299 299 299 299 299 299 299 299 299 299 299 298 298 297 296 295 294 293 292 292 291 290 287 283 279 274 270 267 264 261 258 257 257 256 255 254
301 301 300 300 300 300 300 300 300 299 299 299 299 298 298 298 298 298 298 299 299 299 299 300 300 300 300 299 299 299 298 297 296 295 295 294 294 292 290 286 282 277 273 269 266 263 261 258 257 256 255 255
301 300 300 300 300 300 299 299 299 299 298 298 297 297 297 297 297 298 299 299 300 300 300 300 300 300 300 300 300 300 300 299 298 297 297 297 296 295 292 288 284 280 276 272 268 265 263 260 258 257 256 255
302 301 300 300 299 299 299 299 298 298 297 297 297 297 297 297 298 298 299 300 300 301 301 300 300 301 301 301 301 301 301 300 299 299 298 298 297 296 293 289 285 281 278 275 271 268 265 262 260 258 257 255
303 302 301 300 300 299 299 299 299 298 298 297 297 298 298 298 298 298 299 299 300 300 300 300 300 300 300 301 301 301 301 301 300 299 299 298 298 296 293 289 286 282 279 277 274 271 268 265 262 260 258 257
303 302 302 301 301 300 300 300 299 299 298 298 298 298 298 298 298 298 298 298 298 299 299 299 299 299 300 301 301 301 301 301 300 300 299 299 297 295 292 289 285 282 279 277 275 273 270 268 265 263 260 258
Height
5779 5779 5779 5778 5777 5776 5776 5775 5774 5773 5773 5772 5772 5772 5772 5772 5772 5772 5772 5772 5772 5772 5772 5772 5773 5773 5773 5773 5774 5774 5774 5775 5776 5776 5777 5778 5778 5779 5779 5780 5781 5782 5782 5783 5784 5785 5786 5788 5789 5790 5791 5792
5776 5776 5775 5774 5773 5772 5772 5771 5770 5769 5769 5768 5767 5767 5767 5767 5767 5766 5766 5766 5766 5766 5766 5765 5766 5766 5767 5767 5767 5767 5767 5768 5769 5770 5771 5772 5772 5773 5773 5773 5774 5776 5776 5777 5778 5779 5780 5781 5782 5783 5785 5786
5772 5772 5771 5771 5770 5769 5768 5767 5767 5766 5765 5764 5764 5763 5763 5763 5763 5762 5762 5761 5761 5761 5761 5760 5760 5760 5760 5761 5761 5761 5761 5762 5762 5763 5764 5765 5766 5766 5767 5767 5768 5769 5770 5771 5772 5772 5773 5775 5776 5777 5778 5779
5768 5767 5767 5766 5765 5765 5764 5763 5762 5762 5761 5760 5760 5759 5759 5758 5758 5758 5757 5757 5756 5756 5756 5755 5755 5754 5754 5755 5755 5755 5755 5755 5756 5757 5757 5758 5759 5760 5760 5761 5761 5762 5763 5764 5765 5766 5767 5768 5769 5770 5772 5773
5762 5762 5761 5760 5759 5759 5758 5758 5757 5756 5756 5755 5754 5754 5753 5753 5753 5753 5752 5752 5751 5751 5750 5750 5750 5749 5749 5749 5749 5749 5749 5750 5750 5750 5751 5752 5752 5753 5754 5754 5755 5755 5756 5757 5758 5760 5760 5761 5762 5763 5765 5766
5756 5756 5755 5754 5753 5752 5751 5751 5750 5750 5749 5748 5747 5747 5747 5746 5746 5746 5746 5745 5745 5745 5744 5744 5744 5744 5744 5744 5743 5743 5744 5744 5744 5744 5745 5745 5746 5746 5747 5748 5748 5749 5749 5750 5751 5752 5753 5755 5755 5756 5757 5758
5750 5749 5748 5748 5747 5746 5745 5744 5743 5742 5742 5741 5740 5740 5739 5739 5738 5738 5738 5738 5738 5737 5737 5737 5736 5736 5737 5737 5737 5737 5737 5737 5738 5738 5738 5739 5739 5740 5740 5741 5741 5742 5743 5743 5744 5744 5746 5747 5748 5749 5750 5751
5743 5742 5741 5740 5740 5739 5738 5737 5737 5736 5735 5734 5734 5733 5732 5731 5731 5730 5730 5730 5730 5729 5729 5729 5728 5728 5728 5728 5729 5729 5729 5730 5730 5730 5731 5731 5732 5732 5733 5733 5734 5735 5735 5736 5736 5737 5738 5739 5740 5741 5743 5743
5736 5735 5734 5733 5732 5731 5731 5730 5729 5729 5728 5727 5727 5726 5725 5724 5724 5723 5722 5722 5721 5721 5721 5720 5720 5720 5720 5720 5720 5720 5720 5720 5721 5722 5722 5723 5723 5724 5724 5725 5726 5726 5727 5728 5728 5729 5729 5730 5731 5733 5734 5735
5730 5729 5728 5726 5725 5724 5723 5722 5722 5721 5720 5719 5719 5718 5717 5717 5716 5715 5714 5713 5713 5712 5712 5712 5711 5711 5711 5711 5711 5711 5711 5712 5712 5712 5713 5714 5714 5715 5715 5716 5717 5717 5718 5719 5719 5720 5720 5721 5722 5723 5725 5726
5724 5722 5721 5719 5718 5717 5716 5715 5714 5713 5712 5711 5711 5710 5709 5708 5708 5707 5706 5705 5704 5703 5703 5702 5702 5702 5702 5702 5702 5702 5702 5703 5703 5703 5704 5705 5705 5706 5707 5707 5708 5709 5709 5710 5710 5711 5711 5712 5713 5714 5715 5716
5717 5715 5714 5712 5711 5710 5709 5708 5706 5705 5704 5703 5702 5701 5700 5700 5699 5698 5697 5696 5695 5695 5694 5693 5693 5692 5692 5692 5692 5692 5692 5693 5693 5694 5694 5695 5696 5697 5697 5698 5698 5699 5700 5700 5701 5702 5703 5703 5704 5705 5706 5706
5710 5708 5707 5705 5704 5702 5701 5700 5698 5697 5696 5695 5694 5693 5692 5691 5689 5688 5687 5687 5686 5685 5685 5684 5683 5683 5682 5682 5682 5681 5681 5682 5682 5683 5683 5684 5685 5686 5687 5688 5688 5689 5690 5690 5691 5693 5693 5694 5695 5696 5696 5697
5702 5701 5699 5697 5696 5695 5693 5692 5690 5689 5688 5686 5685 5684 5683 5682 5681 5679 5678 5678 5677 5676 5675 5674 5673 5673 5672 5671 5671 5671 5671 5671 5671 5671 5672 5673 5674 5675 5676 5677 5677 5679 5680 5680 5681 5682 5683 5684 5685 5686 5686 5688
5694 5692 5691 5689 5688 5686 5685 5683 5682 5680 5679 5677 5676 5675 5673 5672 5671 5670 5669 5668 5667 5667 5665 5664 5663 5662 5662 5661 5661 5661 5660 5660 5660 5660 5661 5661 5662 5663 5664 5665 5665 5667 5668 5669 5669 5671 5672 5673 5674 5675 5676 5677
5685 5683 5682 5680 5679 5677 5676 5674 5673 5671 5670 5668 5667 5665 5663 5662 5661 5660 5659 5658 5657 5656 5655 5655 5654 5652 5652 5651 5650 5650 5649 5649 5649 5649 5649 5649 5650 5651 5652 5652 5653 5654 5656 5657 5658 5659 5660 5661 5662 5663 5664 5666
5677 5675 5673 5671 5669 5668 5666 5665 5663 5662 5660 5659 5657 5655 5654 5652 5651 5649 5648 5647 5646 5645 5644 5643 5643 5642 5641 5640 5639 5638 5638 5637 5637 5637 5637 5637 5638 5639 5639 5640 5641 5641 5643 5644 5645 5646 5647 5648 5650 5650 5652 5653
5669 5667 5665 5663 5662 5660 5658 5656 5655 5653 5651 5650 5648 5646 5644 5643 5641 5640 5638 5637 5636 5634 5633 5632 5631 5630 5630 5629 5628 5627 5626 5625 5625 5625 5625 5625 5626 5626 5626 5627 5628 5629 5630 5631 5632 5633 5634 5636 5636 5637 5639 5640
5663 5661 5659 5657 5655 5653 5651 5649 5647 5645 5643 5641 5639 5637 5636 5634 5632 5631 5629 5628 5626 5624 5623 5621 5620 5619 5618 5617 5616 5614 5613 5613 5612 5612 5612 5613 5613 5613 5614 5614 5615 5615 5617 5619 5620 5620 5621 5622 5623 5624 5626 5626
5657 5654 5653 5651 5649 5647 5645 5643 5641 5639 5637 5635 5633 5631 5629 5627 5625 5623 5622 5620 5618 5616 5614 5612 5610 5609 5607 5606 5604 5603 5601 5600 5600 5599 5599 5599 5599 5600 5600 5601 5601 5602 5603 5605 5607 5608 5608 5609 5609 5611 5612 5613
5651 5649 5647 5645 5643 5641 5639 5637 5635 5633 5631 5629 5627 5625 5622 5620 5618 5616 5615 5613 5610 5608 5606 5605 5602 5600 5598 5596 5594 5592 5590 5589 5588 5587 5587 5586 5585 5585 5585 5586 5587 5588 5589 5591 5593 5594 5595 5596 5596 5598 5598 5599
5647 5645 5642 5640 5638 5636 5633 5631 5629 5627 5624 5622 5620 5618 5615 5613 5611 5609 5608 5605 5603 5601 5599 5597 5595 5592 5590 5588 5585 5583 5581 5579 5577 5576 5575 5574 5572 5570 5570 5571 5571 5573 5574 5576 5579 5580 5581 5582 5583 5584 5584 5585
5642 5639 5637 5635 5632 5630 5628 5626 5623 5621 5618 5616 5613 5611 5608 5605 5603 5601 5599 5597 5594 5592 5590 5588 5586 5583 5581 5579 5576 5574 5571 5569 5567 5565 5563 5562 5560 5558 5556 5555 5555 5556 5558 5561 5564 5565 5567 5568 5568 5569 5569 5570
5636 5633 5631 5629 5626 5624 5622 5619 5617 5615 5612 5609 5606 5604 5601 5598 5596 5593 5591 5588 5586 5583 5581 5579 5576 5574 5571 5569 5567 5564 5561 5559 5557 5555 5553 5550 5548 5546 5544 5541 5539 5539 5541 5544 5547 5549 5552 5553 5554 5554 5554 5555
5630 5627 5625 5622 5619 5617 5614 5612 5609 5606 5604 5601 5598 5596 5593 5590 5588 5585 5583 5580 5578 5575 5572 5570 5567 5564 5562 5559 5556 5554 5551 5549 5547 5544 5542 5539 5537 5534 5532 5529 5525 5524 5524 5526 5529 5532 5536 5538 5537 5538 5539 5540
5624 5621 5618 5615 5613 5609 5607 5604 5601 5598 5595 5592 5589 5587 5584 5582 5579 5576 5574 5572 5569 5566 5564 5561 5558 5555 5552 5549 5546 5543 5541 5538 5536 5533 5530 5528 5525 5522 5519 5517 5513 5510 5509 5509 5511 5514 5519 5523 5521 5521 5524 5526
5618 5615 5612 5609 5606 5603 5600 5597 5594 5591 5588 5584 5581 5579 5576 5573 5570 5567 5565 5562 5559 5557 5554 5552 5548 5545 5542 5538 5535 5532 5529 5526 5523 5520 5518 5515 5513 5510 5507 5504 5500 5496 5494 5494 5495 5496 5499 5504 5505 5506 5508 5511
5611 5608 5605 5602 5599 5596 5593 5590 5587 5584 5580 5577 5574 5571 5568 5565 5562 5558 5555 5552 5549 5546 5543 5541 5538 5534 5531 5527 5524 5521 5518 5515 5511 5508 5505 5501 5498 5496 5493 5491 5487 5482 5479 5478 5478 5480 5481 5484 5487 5489 5492 5496
5605 5601 5598 5595 5592 5589 5586 5583 5580 5576 5573 5569 5566 5562 5559 5556 5553 5549 5545 5542 5539 5536 5533 5530 5527 5524 5520 5516 5512 5509 5507 5503 5499 5496 5492 5488 5485 5482 5478 5477 5475 5470 5466 5464 5462 5463 5465 5466 5469 5471 5475 5480
5597 5594 5591 5588 5585 5582 5578 5575 5572 5568 5564 5561 5557 5553 5550 5547 5544 5540 5536 5533 5530 5526 5523 5520 5517 5513 5509 5506 5501 5498 5495 5491 5487 5484 5479 5475 5472 5468 5464 5462 5460 5457 5454 5451 5448 5447 5449 5449 5450 5454 5457 5460
5590 5587 5584 5580 5577 5573 5570 5567 5563 5560 5556 5552 5548 5544 5541 5537 5534 5531 5528 5524 5520 5516 5513 5510 5506 5503 5499 5495 5491 5487 5483 5479 5475 5471 5466 5462 5458 5454 5451 5447 5445 5443 5441 5439 5435 5433 5434 5433 5433 5436 5440 5441